Home   Weather   Arlington   Past weeks
Flag for USA

Past Weather in Arlington, Texas, USA — Yesterday and Last 2 Weeks

Now
87 °F

Passing clouds.


Feels Like: 89 °F
Forecast: 86 / 72 °F
Wind: 20 mph from Southeast

Location: Arlington Municipal Airport

Current Time: May 24, 2019 at 8:17:33 pm

Latest Report: May 24, 2019 at 6:53 pm


Visibility: 10 mi

Pressure: 29.88 "Hg

Humidity: 50%

Dew Point: 66 °F

Location of ArlingtonLocation

Past Weather in Arlington — Graph

°F

Arlington Temperature Yesterday

Maximum temperature yesterday: 90 °F (at 2:53 pm)
Minimum temperature yesterday: 76 °F (at 6:53 am)
Average temperature yesterday: 82 °F

High & Low Weather Summary for the Past Weeks

 TemperatureHumidityPressure
High90 °F (May 22, 3:53 pm)97% (May 11, 5:40 am)30.10 "Hg (May 11, 5:40 am)
Low52 °F (May 10, 4:53 am)22% (May 21, 6:53 pm)29.47 "Hg (May 21, 2:53 am)
Average72 °F71%29.85 "Hg
* Reported May 9 6:53 pm — May 24 6:53 pm, Arlington. Weather by CustomWeather, © 2019

Note: Actual official high and low records may vary slightly from our data, if they occured in-between our weather recording intervals... More about our weather records

Advertising

Arlington Weather History for the Previous 24 Hours

Scroll right to see more
 ConditionsComfort  
Time TempWeatherWind HumidityBarometerVisibility
6:53 pm
Fri, May 24
87 °FPassing clouds.20 mph50%29.88 "Hg10 mi
5:53 pm87 °FPassing clouds.18 mph50%29.88 "Hg10 mi
4:53 pm88 °FSunny.21 mph48%29.90 "Hg10 mi
3:53 pm89 °FSunny.22 mph48%29.93 "Hg10 mi
2:53 pm88 °FPartly sunny.20 mph52%29.96 "Hg10 mi
1:53 pm86 °FBroken clouds.18 mph55%29.98 "Hg10 mi
12:53 pm86 °FPartly sunny.17 mph55%29.99 "Hg10 mi
11:53 am83 °FBroken clouds.17 mph61%30.01 "Hg10 mi
10:53 am83 °FScattered clouds.13 mph65%30.01 "Hg10 mi
10:17 am81 °FCloudy.13 mph69%30.05 "Hg10 mi
9:53 am81 °FPartly sunny.16 mph69%30.02 "Hg10 mi
8:53 am78 °FCloudy.14 mph76%30.01 "Hg10 mi
7:53 am77 °FMostly cloudy.10 mph82%29.99 "Hg10 mi
6:53 am76 °FPartly sunny.9 mph82%29.96 "Hg10 mi
5:53 am77 °FOvercast.14 mph79%29.93 "Hg10 mi
5:35 am77 °FOvercast.12 mph79%29.96 "Hg10 mi
4:53 am78 °FMostly cloudy.12 mph76%29.93 "Hg10 mi
4:17 am78 °FPassing clouds.14 mph76%29.94 "Hg10 mi
4:04 am78 °FPartly cloudy.14 mph76%29.94 "Hg10 mi
2:53 am79 °FMostly cloudy.14 mph77%29.91 "Hg10 mi
1:53 am80 °FOvercast.16 mph74%29.92 "Hg10 mi
12:53 am80 °FMostly cloudy.20 mph76%29.92 "Hg10 mi
12:39 am81 °FOvercast.22 mph74%29.95 "Hg10 mi
12:05 am81 °FMostly cloudy.21 mph74%29.95 "Hg10 mi
11:30 pm
Thu, May 23
81 °FPassing clouds.18 mph74%29.95 "Hg10 mi
10:53 pm82 °FClear.16 mph72%29.91 "Hg10 mi
9:53 pm83 °FClear.14 mph68%29.90 "Hg10 mi
8:53 pm84 °FClear.15 mph65%29.88 "Hg10 mi
Weather by CustomWeather, © 2019

See weather overview